Regional Weather Roundup
Issued by NWS Northern Indiana

Home | Current Version | Previous Version | Graphics & Text | Print | Product List | Glossary On
Versions: 1 2 3 4 5 6 7 8 9 10 11 12 13 14 15 16 17 18 19 20 21 22 23 24 25 26 27 28 29 30 31 32 33 34 35 36 37 38 39 40 41 42 43 44 45 46 47 48 49 50
000
ASUS43 KIWX 272010
RWRIWX

KIWX WEATHER ROUNDUP
NATIONAL WEATHER SERVICE NORTHERN INDIANA
300 PM EST THU NOV 27 2014

NOTE: "FAIR" INDICATES FEW OR NO CLOUDS BELOW 12,000 FEET WITH NO
SIGNIFICANT WEATHER AND/OR OBSTRUCTIONS TO VISIBILITY.

* THESE STATIONS ARE NOT UNDER NWS QUALITY CONTROL. THEY ALSO MAY NOT
  REPORT WEATHER SUCH AS PRECIPITATION OR FOG.

INZ001>027-272100-
NORTHERN INDIANA

CITY           SKY/WX    TMP DP  RH WIND       PRES   REMARKS
GARY*          CLOUDY    28  18  64 NW14      30.35R WCI  17
VALPARAISO     LGT SNOW  26  22  84 NW10      30.32R FOG     WCI  16
MICHIGAN CITY* CLOUDY    28  19  69 NW12G18   30.31R WCI  18
LAPORTE*       LGT SNOW  29  23  76 NW8G20    30.31R WCI  21
KNOX*          CLOUDY    27  22  80 NW12G20   30.30R WCI  17
SOUTH BEND     FLURRIES  29  23  78 W12       30.27R WCI  19
GOSHEN         LGT SNOW  30  25  81 W16       30.24R WCI  19
MONTICELLO*    CLOUDY    27  20  76 NW16      30.32S WCI  15
LOGANSPORT*    CLOUDY    28  21  74 W9G16     30.32S WCI  20
ROCHESTER*     LGT SNOW  32  27  80 W12       30.29S WCI  23
WARSAW*        FLURRIES  30  27  86 W15       30.26R WCI  19
ANGOLA*        CLOUDY    28  18  64 NW13      30.19R VSB 1   WCI  18
FORT WAYNE     FLURRIES  31  25  78 W16G25    30.25R WCI  20
HUNTINGTON*    CLOUDY    29  24  79 W13G21    30.27R WCI  19
PERU/GRISSOM   CLOUDY    29  25  84 W15       30.29S WCI  17
MARION*          N/A     28  22  78 NW16G24   30.30R HAZE    WCI  16

$$
INZ028>050-272100-
CENTRAL INDIANA

CITY           SKY/WX    TMP DP  RH WIND       PRES   REMARKS
LAFAYETTE      CLOUDY    27  19  72 NW14      30.35R WCI  16
KOKOMO*        CLOUDY    27  19  74 NW18      30.30S WCI  13
MUNCIE*        CLOUDY    29  22  75 W18G24    30.27S WCI  16
INDIANAPOLIS   CLOUDY    28  19  69 NW17      30.32R WCI  16

$$
MIZ043>046-050>051-056>058-064>065-071>073-077>080-272100-
SOUTHWEST LOWER MICHIGAN

CITY           SKY/WX    TMP DP  RH WIND       PRES   REMARKS
BATTLE CREEK   CLOUDY    33  23  66 NW8       30.19R WCI  26
BENTON HARBOR  LGT SNOW  29  21  72 VRB7G20   30.27S WCI  22
COLDWATER*     CLOUDY    32  26  76 NW15G21   30.18R WCI  22
HILLSDALE*     CLOUDY    32  28  83 W10G16    30.15S WCI  24
HOLLAND        CLOUDY    28  19  69 N12G22    30.26R WCI  18
GRAND RAPIDS   FLURRIES  29  21  72 NW13      30.22R WCI  19
KALAMAZOO      LGT SNOW  30  26  85 NW13      30.22R VSB 3/4 WCI  20
STURGIS*       LGT SNOW  30  27  86 NW12      30.21R WCI  21
THREE RIVERS*  LGT SNOW  31  28  89 NW12      30.22R VSB 3/4 WCI  21

$$
OHZ001>008-015>018-024>025-272100-
NORTHWEST OHIO

CITY           SKY/WX    TMP DP  RH WIND       PRES   REMARKS
WAUSEON*       CLOUDY    32  27  80 W14       30.18S WCI  22
DEFIANCE       CLOUDY    34  26  72 W6        30.21S WCI  29
FINDLAY        LGT SNOW  33  25  72 W16       30.19S WCI  23
TOLEDO EXPRESS CLOUDY    33  23  66 W16       30.18S WCI  23
TOLEDO METCALF CLOUDY    34  23  64 W15       30.19S WCI  24
LIMA           LGT SNOW  32  26  78 W15       30.21R WCI  22

$$
AND FOR LAKE MICHIGAN COASTAL AND OPEN LAKE BUOY OBSERVATIONS

STATION/POSITION TEMP    WIND        PRES    VSBY  WAVE
                 AIR SEA DIR/SP/G                  HT/PER
                 (F)     (DEG/KT/KT) (MB)    (MI)  (FT/S)
CALUMET HARBOR    26     310/  8/ 11 1026.0F
MICHIGAN CITY     27     270/ 21/ 24   N/A
SAINT JOSEPH      31     320/ 19/ 23 1025.7R
SOUTH LAKE BUOY   27 42  320/ 19/ 23 1026.6R         7/ 7

$$
&&



USA.gov is the U.S. government's official web portal to all federal, state and local government web resources and services.